Location: Austin
(30.3000°N, 97.7500°W)
Time: 03:05:36
(UTC-05:00)

Resurs 1-3 - Pass Details

Date: 18 March 2023
Orbit: 627 x 628 km, 97.8° (Epoch: 01 April)

Event Time Altitude Azimuth Distance (km) Brightness Sun altitude
Exits shadow 21:07:52 44° 87° (E) 868 3.8 -19.4°
Maximum altitude 21:08:10 45° 75° (ENE) 859 3.8 -19.5°
Drops below altitude 10° 21:12:19 10° 3° (N) 2,006 6.3 -20.4°
Sets 21:14:35 0° 357° (N) 2,916 7.2 -20.9°
